Flag for United Kingdom Weather past 2 weeks in Liverpool, England, United Kingdom

Now
54 °F

Partly cloudy.


Feels Like: 54 °F
Forecast: 52 / 59 °F
Wind: 2 mph from Southwest

Location: Liverpool Airport

Current Time: Oct 24, 2014 at 8:01:05 AM

Latest Report: Oct 24, 2014 at 7:20 AM


Visibility: 2 mi

Pressure: 29.86 "Hg

Humidity: 94%

Dew point: 52 °F

Location of LiverpoolLocation

Historic Weather in Liverpool — Graph

°F

Liverpool temperature yesterday

Maximum temperature yesterday: 61 °F (at 1:50 PM)
Minimum temperature yesterday: 54 °F (at 12:20 AM)
Average temperature yesterday: 57 °F

Past Weeks' High & Low Weather Summary

 TemperatureHumidityPressure
High68 °F (Oct 18, 2:50 PM)100% (Oct 11, 4:20 AM)30.24 "Hg (Oct 11, 4:20 AM)
Low37 °F (Oct 12, 8:20 AM)54% (Oct 21, 3:50 PM)29.18 "Hg (Oct 9, 6:20 AM)
Average54 °F84%29.74 "Hg
* Reported Oct 9 6:20 AM — Oct 24 6:20 AM, Liverpool, Weather by CustomWeather, © 2014

Note: Actual official high and low records may vary slightly from our data, if they occured in-between our weather recording intervals... More about our weather records

Advertising

Liverpool weather history for previous 24 hours

 ConditionsComfort  
Time TempWeatherWind HumidityBarometerVisibility
6:20 AM
Oct 24
54 °FDrizzle. Low clouds.2 mph94%29.86 "Hg3 mi
5:50 AM54 °FDrizzle. Low clouds.1 mph94%29.86 "Hg4 mi
5:20 AM52 °FLight rain. Passing clouds.3 mph100%29.86 "Hg4 mi
4:50 AM54 °FLight rain. Partly cloudy.3 mph94%29.86 "Hg6 mi
4:20 AM54 °FLight rain. Passing clouds.5 mph94%29.86 "Hg6 mi
3:20 AM55 °FSprinkles. Partly cloudy.14 mph94%29.89 "Hg4 mi
2:50 AM57 °FPassing clouds.9 mph88%29.86 "HgN/A
2:20 AM57 °FPassing clouds.10 mph82%29.86 "HgN/A
1:50 AM57 °FPassing clouds.12 mph82%29.86 "HgN/A
1:20 AM57 °FPassing clouds.10 mph88%29.86 "HgN/A
12:50 AM57 °FPassing clouds.7 mph88%29.86 "HgN/A
12:20 AM57 °FPassing clouds.7 mph88%29.89 "HgN/A
11:50 PM
Oct 23
57 °FPassing clouds.6 mph88%29.89 "HgN/A
11:20 PM57 °FPassing clouds.7 mph88%29.89 "HgN/A
10:50 PM57 °FPassing clouds.13 mph88%29.89 "HgN/A
10:20 PM57 °FPassing clouds.13 mph82%29.89 "HgN/A
9:50 PM59 °FPassing clouds.12 mph77%29.89 "HgN/A
9:20 PM57 °FPassing clouds.8 mph88%29.89 "HgN/A
8:50 PM57 °FPassing clouds.7 mph82%29.89 "HgN/A
8:20 PM59 °FPassing clouds.8 mph77%29.89 "HgN/A
7:50 PM59 °FPassing clouds.9 mph77%29.89 "HgN/A
7:20 PM59 °FPassing clouds.6 mph82%29.89 "HgN/A
6:50 PM59 °FPartly sunny.6 mph82%29.89 "HgN/A
6:20 PM59 °FPartly sunny.7 mph82%29.89 "HgN/A
5:50 PM61 °FPartly sunny.6 mph77%29.89 "HgN/A
5:20 PM61 °FPartly sunny.8 mph77%29.89 "HgN/A
4:50 PM61 °FPartly sunny.12 mph77%29.89 "HgN/A
4:20 PM61 °FPartly sunny.12 mph77%29.89 "HgN/A
3:50 PM61 °FPartly sunny.8 mph77%29.89 "HgN/A
3:20 PM61 °FPartly sunny.15 mph77%29.92 "HgN/A
2:50 PM61 °FPartly sunny.12 mph77%29.92 "HgN/A
2:20 PM61 °FPartly sunny.10 mph83%29.92 "HgN/A
1:50 PM61 °FPartly sunny.10 mph83%29.92 "HgN/A
1:20 PM59 °FBroken clouds.8 mph88%29.95 "HgN/A
12:20 PM59 °FBroken clouds.10 mph82%29.95 "HgN/A
11:50 AM59 °FPartly sunny.15 mph82%29.95 "HgN/A
11:20 AM57 °FPartly sunny.7 mph88%29.98 "HgN/A
10:50 AM57 °FPartly sunny.7 mph82%29.98 "HgN/A
10:20 AM55 °FPartly sunny.7 mph88%29.98 "HgN/A
9:50 AM55 °FPartly sunny.8 mph88%29.98 "HgN/A
9:20 AM54 °FPartly sunny.6 mph88%29.98 "HgN/A
8:50 AM54 °FPassing clouds.8 mph88%29.98 "HgN/A
8:20 AM54 °FPassing clouds.6 mph88%29.98 "HgN/A
Weather by CustomWeather, © 2014

See weather overviewHow to use our weather pages